Location: Marysville Observatory
(48.1092°N, 122.1645°W)
Time: 22:17:48
(UTC-07:00)

Amateur Radio Satellites - All Passes

Search period start: 27 April 2015 21:47
Search period end: 28 April 2015 21:47
Location: Marysville Observatory, 48.1092°N, 122.1645°W

Satellite Date Start Highest point End Downlink Frequencies (MHz)
Time Altitude Azimuth
DELFI C3 27 Apr 21:51:48 21:55:52 69° 73° (ENE) 21:59:57 145.870
COMPASS 1 27 Apr 21:51:58 21:55:58 39° 263° (W) 21:59:58 437.405
CINEMA 3 27 Apr 21:55:46 22:00:07 56° 261° (W) 22:04:42 145.822/145.860
PHONESAT 2.4 27 Apr 21:57:48 21:59:08 12° 204° (SSW) 22:00:25 2401.200-2431.200
O/OREOS (USA 219) 27 Apr 21:58:53 22:02:55 32° 106° (ESE) 22:06:59 437.305
UWE-3 27 Apr 21:59:35 22:03:59 76° 75° (ENE) 22:08:34 435.000/436.395/437.385
FUNcube-1 27 Apr 22:02:39 22:07:00 65° 73° (ENE) 22:11:30 145.935
UKube-1 27 Apr 22:04:23 22:08:28 44° 69° (ENE) 22:12:36 .
HUMSAT D 27 Apr 22:04:55 22:08:48 36° 69° (ENE) 22:12:47 437.325/437.525
ESTCUBE 1 27 Apr 22:12:56 22:15:55 18° 61° (ENE) 22:19:01 437.505/2401.250
SEEDS 27 Apr 22:22:48 22:25:44 17° 271° (W) 22:28:33 437.485
Oscar 11 27 Apr 22:23:04 22:27:15 44° 262° (W) 22:31:28 145.826/435.025
50 SAT 27 Apr 22:27:51 22:31:34 38° 70° (ENE) 22:35:22 437.505
TIGRISAT 27 Apr 22:28:48 22:30:30 12° 84° (E) 22:32:25 435.000
ZACube-1 27 Apr 22:29:05 22:33:28 69° 259° (WSW) 22:37:59 437.345
UNISAT 6 27 Apr 22:33:42 22:36:03 14° 86° (E) 22:38:36 437.425
AAUSAT CUBESAT 2 27 Apr 22:33:51 22:36:51 18° 270° (W) 22:39:44 437.432
CANX-2 27 Apr 22:38:13 22:38:45 10° 276° (W) 22:39:02 2200.000
CUBEBUG 1 27 Apr 22:40:24 22:43:59 26° 66° (ENE) 22:47:39 437.445
VELOX 1 27 Apr 22:41:30 22:45:45 52° 71° (ENE) 22:50:04 145.980
HO-68 27 Apr 22:42:35 22:47:41 19° 274° (W) 22:52:30 435.675
Cosmos 2504 27 Apr 22:46:02 22:50:46 17° 50° (NE) 22:55:37 435.465 / 435.565
AISAT 27 Apr 23:00:14 23:04:39 82° 72° (ENE) 23:09:05 437.250
DX 1 27 Apr 23:00:49 23:05:01 48° 260° (W) 23:09:14 434.975-435.025
TISAT 1 27 Apr 23:12:42 23:14:51 14° 60° (ENE) 23:17:08 437.305
ANTELSAT 27 Apr 23:14:32 23:18:48 33° 95° (E) 23:23:01 437.575/2403.000
CUBEBUG 2 27 Apr 23:17:03 23:20:08 18° 272° (W) 23:23:09 437.445
QB50P2 27 Apr 23:19:07 23:22:04 18° 90° (E) 23:25:07 145.880/145.840
DELFI C3 27 Apr 23:29:41 23:31:33 12° 273° (W) 23:33:13 145.870
Cosmos 2491 27 Apr 23:33:46 23:42:31 83° 280° (W) 23:51:23 435.465 / 435.565
NANOSAT C BR1 27 Apr 23:35:03 23:38:36 25° 93° (E) 23:42:12 145.865
RS-15 27 Apr 23:36:21 23:47:51 79° 236° (WSW) 23:59:50 29.354- 29.394
O/OREOS (USA 219) 27 Apr 23:38:06 23:42:18 35° 305° (NW) 23:46:29 437.305
UWE-3 27 Apr 23:38:57 23:41:12 13° 275° (W) 23:43:17 435.000/436.395/437.385
POPSAT HIP 1 27 Apr 23:39:19 23:43:01 28° 94° (E) 23:46:45 437.405
YUBILEINY 27 Apr 23:40:29 23:48:19 37° 275° (W) 23:55:56 435.215
HUMSAT D 27 Apr 23:41:05 23:44:40 25° 267° (W) 23:48:14 437.325/437.525
FUNcube-1 27 Apr 23:41:13 23:43:53 15° 273° (W) 23:46:26 145.935
UKube-1 27 Apr 23:41:29 23:44:51 21° 268° (W) 23:48:08 .
ESTCUBE 1 27 Apr 23:47:55 23:52:23 62° 259° (W) 23:56:52 437.505/2401.250
BUGSAT 1 27 Apr 23:50:38 23:54:05 25° 94° (E) 23:57:36 437.445
SPROUT 27 Apr 23:50:46 23:54:43 38° 69° (ENE) 23:58:43 437.525
TIGRISAT 28 Apr 00:03:16 00:08:02 89° 274° (W) 00:12:42 435.000
50 SAT 28 Apr 00:03:22 00:06:32 22° 268° (W) 00:09:40 437.505
DUCHIFAT 1 28 Apr 00:07:48 00:12:00 52° 100° (E) 00:16:12 145.980
UNISAT 6 28 Apr 00:08:46 00:13:31 78° 285° (WNW) 00:18:10 437.425
POLYITAN 1 28 Apr 00:09:55 00:14:12 57° 100° (E) 00:18:28 437.675
CUBEBUG 1 28 Apr 00:16:15 00:20:15 36° 263° (W) 00:24:15 437.445
VELOX 1 28 Apr 00:19:32 00:22:41 18° 270° (W) 00:25:43 145.980
QB50P1 28 Apr 00:26:56 00:31:16 84° 105° (ESE) 00:35:34 145.935-145.965
ITUPSAT 1 28 Apr 00:28:55 00:31:57 18° 59° (ENE) 00:35:08 437.325
AIST 1 28 Apr 00:37:28 00:41:33 44° 94° (E) 00:45:38
Cosmos 2504 28 Apr 00:38:06 00:46:12 69° 76° (ENE) 00:53:41 435.465 / 435.565
AISAT 28 Apr 00:40:12 00:41:56 12° 274° (W) 00:43:26 437.250
TISAT 1 28 Apr 00:45:56 00:50:07 74° 257° (WSW) 00:54:21 437.305
ANTELSAT 28 Apr 00:51:19 00:55:34 33° 293° (WNW) 00:59:42 437.575/2403.000
QB50P2 28 Apr 00:54:06 00:58:18 51° 289° (WNW) 01:02:29 145.880/145.840
BEESAT 28 Apr 00:56:48 01:00:53 29° 65° (ENE) 01:05:03 436.000
SWISSCUBE 28 Apr 00:59:35 01:03:50 33° 66° (ENE) 01:08:07 437.505
NANOSAT C BR1 28 Apr 01:10:35 01:14:33 37° 292° (WNW) 01:18:29 145.865
POPSAT HIP 1 28 Apr 01:15:03 01:18:57 33° 292° (WNW) 01:22:48 437.405
BUGSAT 1 28 Apr 01:25:51 01:29:39 35° 291° (WNW) 01:33:27 437.445
SPROUT 28 Apr 01:27:25 01:30:56 24° 267° (W) 01:34:25 437.525
Cosmos 2491 28 Apr 01:34:25 01:41:03 22° 306° (NW) 01:47:25 435.465 / 435.565
TIGRISAT 28 Apr 01:41:37 01:44:07 14° 302° (WNW) 01:46:26 435.000
Oscar 19 28 Apr 01:43:00 01:46:56 22° 90° (E) 01:50:58 437.125/150
DUCHIFAT 1 28 Apr 01:44:24 01:47:30 19° 297° (WNW) 01:50:30 145.980
POLYITAN 1 28 Apr 01:46:45 01:49:45 18° 298° (WNW) 01:52:38 437.675
UNISAT 6 28 Apr 01:47:32 01:49:33 12° 304° (WNW) 01:51:23 437.425
KKS-1 28 Apr 01:47:46 01:50:49 19° 61° (ENE) 01:53:59 437.445
RS-15 28 Apr 01:50:10 01:58:47 24° 258° (WSW) 02:07:04 29.354- 29.394
QB50P1 28 Apr 02:04:29 02:06:34 13° 301° (WNW) 02:08:29 145.935-145.965
ITUPSAT 1 28 Apr 02:04:34 02:09:22 73° 257° (WSW) 02:14:11 437.325
GONETS M04 28 Apr 02:06:27 02:13:08 24° 56° (NE) 02:20:03
AIST 1 28 Apr 02:16:14 02:19:28 20° 293° (WNW) 02:22:38
CUSAT 1 28 Apr 02:18:40 02:23:48 20° 56° (NE) 02:29:39 437.405
ITAMSAT 1 28 Apr 02:24:04 02:27:09 16° 87° (E) 02:30:26 435.822/435.867
Cosmos 2504 28 Apr 02:32:24 02:38:55 27° 279° (W) 02:44:53 435.465 / 435.565
BEESAT 28 Apr 02:34:10 02:38:39 38° 263° (W) 02:43:07 436.000
STARS 28 Apr 02:34:55 02:38:49 32° 67° (ENE) 02:42:48 437.465
SWISSCUBE 28 Apr 02:37:19 02:41:41 34° 264° (W) 02:46:01 437.505
AIST 2 28 Apr 02:41:25 02:43:48 15° 112° (ESE) 02:46:21 435.215
BEESAT 3 28 Apr 02:55:38 02:59:42 64° 124° (SE) 03:03:48 437.485
BEESAT 2 28 Apr 03:00:30 03:04:34 60° 124° (ESE) 03:08:41 435.950
Gurwin Techsat 1B 28 Apr 03:08:15 03:13:05 35° 95° (E) 03:17:57 435.225
DANDE 28 Apr 03:14:44 03:21:18 34° 66° (ENE) 03:28:52 436.750
Oscar 19 28 Apr 03:21:35 03:26:43 58° 290° (WNW) 03:31:49 437.125/150
KKS-1 28 Apr 03:22:42 03:27:05 58° 259° (W) 03:31:30 437.445
AO-7 28 Apr 03:53:12 03:58:55 21° 87° (E) 04:05:00 29.400- 29.500
HORYU 2 28 Apr 03:56:28 03:59:43 20° 91° (E) 04:03:04 437.375
CUSAT 1 28 Apr 04:00:13 04:07:48 73° 76° (ENE) 04:16:11 437.405
ITAMSAT 1 28 Apr 04:02:09 04:07:20 77° 288° (WNW) 04:12:31 435.822/435.867
GONETS M04 28 Apr 04:02:35 04:11:31 88° 79° (ENE) 04:20:22
MOZHAYETS 4 28 Apr 04:09:15 04:13:26 35° 67° (ENE) 04:17:39
STARS 28 Apr 04:11:25 04:15:18 30° 265° (W) 04:19:11 437.465
AIST 2 28 Apr 04:17:37 04:21:53 76° 309° (NW) 04:26:13 435.215
JAS-2 28 Apr 04:18:44 04:23:54 27° 88° (E) 04:28:42 435.910
BEESAT 3 28 Apr 04:34:46 04:38:05 23° 325° (NW) 04:41:23 437.485
BEESAT 2 28 Apr 04:39:36 04:43:01 24° 324° (NW) 04:46:26 435.950
AUBIESAT-1 28 Apr 04:43:35 04:46:13 15° 53° (NE) 04:48:58 437.475
Gurwin Techsat 1B 28 Apr 04:48:13 04:53:07 38° 294° (WNW) 04:57:58 435.225
Cosmos 2499 28 Apr 04:51:24 04:58:31 37° 66° (ENE) 05:05:14 435.465 / 435.565
DANDE 28 Apr 04:57:36 05:05:01 67° 263° (W) 05:13:27 436.750
Oscar 19 28 Apr 05:03:48 05:05:07 11° 308° (NW) 05:06:12 437.125/150
PRISM 28 Apr 05:18:51 05:18:58 10° 57° (ENE) 05:19:17 437.425
STRAND 1 28 Apr 05:31:20 05:34:03 15° 56° (NE) 05:36:57 437.568
HORYU 2 28 Apr 05:32:18 05:36:42 50° 290° (WNW) 05:41:02 437.375
M-CUBED/EXP-1 PRIME 28 Apr 05:36:10 05:40:42 42° 63° (ENE) 05:45:14 437.505
ITAMSAT 1 28 Apr 05:43:26 05:46:06 14° 305° (NW) 05:48:33 435.822/435.867
CUSAT 1 28 Apr 05:43:37 05:50:11 31° 272° (W) 05:57:01 437.405
AO-7 28 Apr 05:44:40 05:53:04 86° 109° (ESE) 06:01:27 29.400- 29.500
MOZHAYETS 4 28 Apr 05:46:34 05:50:42 30° 266° (W) 05:54:47
CUBESAT XI-V 28 Apr 05:53:35 05:57:43 34° 68° (ENE) 06:01:54 437.345
AIST 2 28 Apr 05:58:15 06:01:13 17° 331° (NNW) 06:04:06 435.215
GONETS M04 28 Apr 06:00:46 06:07:21 23° 282° (WNW) 06:13:35
JAS-2 28 Apr 06:03:16 06:09:34 56° 292° (WNW) 06:15:06 435.910
AUBIESAT-1 28 Apr 06:15:34 06:20:23 84° 69° (ENE) 06:25:09 437.475
O/OREOS (USA 219) 28 Apr 06:26:17 06:29:22 18° 45° (NE) 06:32:31 437.305
DANDE 28 Apr 06:42:56 06:47:27 16° 279° (W) 06:51:46 436.750
Cosmos 2499 28 Apr 06:44:31 06:52:02 52° 270° (W) 06:58:59 435.465 / 435.565
PRISM 28 Apr 06:49:37 06:53:46 76° 74° (ENE) 06:57:55 437.425
PCSat 28 Apr 06:57:37 06:59:32 12° 104° (ESE) 07:01:46 145.827
STRAND 1 28 Apr 07:07:28 07:12:35 85° 76° (ENE) 07:17:44 437.568
M-CUBED/EXP-1 PRIME 28 Apr 07:11:24 07:15:39 29° 261° (W) 07:19:49 437.505
CUTE-I 28 Apr 07:12:35 07:17:42 46° 98° (E) 07:22:49 437.470
Cubesat XI-IV 28 Apr 07:23:02 07:28:17 57° 100° (E) 07:33:32 437.490
CUBESAT XI-V 28 Apr 07:31:06 07:35:13 30° 266° (W) 07:39:17 437.345
AO-7 28 Apr 07:38:17 07:45:06 29° 310° (NW) 07:51:45 29.400- 29.500
Cosmos 2491 28 Apr 07:44:17 07:49:08 16° 48° (NE) 07:54:25 435.465 / 435.565
JAS-2 28 Apr 07:50:35 07:53:13 12° 314° (NW) 07:55:29 435.910
AUBIESAT-1 28 Apr 07:53:03 07:55:45 14° 268° (W) 07:58:15 437.475
BRITE-PL 28 Apr 07:53:26 07:55:05 12° 84° (E) 07:57:04 437.365/2234.400
O/OREOS (USA 219) 28 Apr 08:04:51 08:09:22 73° 247° (WSW) 08:13:48 437.305
HO-68 28 Apr 08:17:42 08:20:56 14° 82° (E) 08:24:37 435.675
PRISM 28 Apr 08:28:14 08:29:50 12° 273° (W) 08:31:13 437.425
PCSat 28 Apr 08:36:45 08:42:08 74° 121° (ESE) 08:47:36 145.827
CANX-2 28 Apr 08:41:20 08:43:12 13° 86° (E) 08:45:15 2200.000
CUTE 1.7 + AOD 2 28 Apr 08:49:42 08:51:57 14° 87° (E) 08:54:22 437.475
STRAND 1 28 Apr 08:49:48 08:52:35 14° 274° (W) 08:55:07 437.568
CUTE-I 28 Apr 08:53:02 08:57:37 30° 297° (WNW) 09:02:09 437.470
YUBILEINY 28 Apr 08:58:57 09:01:39 12° 71° (ENE) 09:04:58 435.215
GOMX 1 28 Apr 09:01:59 09:06:35 32° 94° (E) 09:11:25 467.674
Cubesat XI-IV 28 Apr 09:03:47 09:08:05 25° 299° (WNW) 09:12:17 437.490
AIST 2 28 Apr 09:20:39 09:22:03 11° 18° (NNE) 09:23:30 435.215
DOVE 4 28 Apr 09:24:16 09:28:56 35° 95° (E) 09:33:47 437.250
CUBEBUG 2 28 Apr 09:28:48 09:29:45 11° 83° (E) 09:31:00 437.445
BRITE-PL 28 Apr 09:29:17 09:34:26 77° 101° (ESE) 09:39:56 437.365/2234.400
TIGRISAT 28 Apr 09:30:34 09:33:34 18° 60° (ENE) 09:36:43 435.000
COMPASS 1 28 Apr 09:32:04 09:35:35 26° 93° (E) 09:39:08 437.405
BEESAT 3 28 Apr 09:33:49 09:37:04 22° 35° (NE) 09:40:20 437.485
UNISAT 6 28 Apr 09:35:54 09:39:11 20° 62° (ENE) 09:42:38 437.425
BEESAT 2 28 Apr 09:39:05 09:42:19 22° 34° (NE) 09:45:34 435.950
Cosmos 2491 28 Apr 09:39:40 09:48:25 61° 74° (ENE) 09:57:10 435.465 / 435.565
CINEMA 3 28 Apr 09:46:56 09:51:18 30° 93° (E) 09:55:45 145.822/145.860
UWE-3 28 Apr 09:47:34 09:49:47 14° 85° (E) 09:52:15 435.000/436.395/437.385
QB50P1 28 Apr 09:50:01 09:51:54 13° 59° (ENE) 09:53:57 145.935-145.965
FUNcube-1 28 Apr 09:50:10 09:51:08 11° 84° (E) 09:52:23 145.935
SEEDS 28 Apr 10:01:52 10:06:07 63° 101° (ESE) 10:10:18 437.485
HO-68 28 Apr 10:03:00 10:10:12 70° 104° (ESE) 10:17:21 435.675
Oscar 11 28 Apr 10:07:03 10:10:40 26° 93° (E) 10:14:20 145.826/435.025
AAUSAT CUBESAT 2 28 Apr 10:11:45 10:15:54 57° 101° (E) 10:20:00 437.432
ZACube-1 28 Apr 10:14:56 10:18:15 20° 89° (E) 10:21:40 437.345
CANX-2 28 Apr 10:15:25 10:19:44 72° 285° (WNW) 10:23:58 2200.000
QB50P2 28 Apr 10:15:36 10:18:52 22° 64° (ENE) 10:22:14 145.880/145.840
ANTELSAT 28 Apr 10:16:45 10:21:06 44° 70° (ENE) 10:25:36 437.575/2403.000
PCSat 28 Apr 10:21:34 10:26:09 26° 323° (NW) 10:30:40 145.827
CUTE 1.7 + AOD 2 28 Apr 10:24:07 10:28:23 65° 286° (WNW) 10:32:35 437.475
NANOSAT C BR1 28 Apr 10:31:06 10:34:46 30° 67° (ENE) 10:38:30 145.865
POPSAT HIP 1 28 Apr 10:35:35 10:39:21 33° 68° (ENE) 10:43:12 437.405
GOMX 1 28 Apr 10:39:57 10:44:47 41° 291° (WNW) 10:49:49 467.674
AIST 1 28 Apr 10:41:31 10:44:19 17° 65° (ENE) 10:47:14
BUGSAT 1 28 Apr 10:44:21 10:47:47 28° 67° (ENE) 10:51:17 437.445
DX 1 28 Apr 10:45:58 10:49:20 22° 92° (E) 10:52:47 434.975-435.025
YUBILEINY 28 Apr 10:48:09 10:56:41 58° 92° (E) 11:05:17 435.215
AISAT 28 Apr 10:49:16 10:51:03 12° 86° (E) 10:53:05 437.250
SO-50 28 Apr 10:50:15 10:53:53 23° 114° (ESE) 10:57:42 436.795
ISS 28 Apr 10:50:39 10:52:05 13° 136° (SE) 10:53:36 145.825
AIST 2 28 Apr 10:57:58 11:01:54 34° 41° (NE) 11:05:47 435.215
DOVE 4 28 Apr 11:02:00 11:06:43 38° 292° (WNW) 11:11:31 437.250
CUBEBUG 2 28 Apr 11:02:30 11:07:20 80° 102° (ESE) 11:12:07 437.445
DELFI C3 28 Apr 11:02:47 11:06:51 73° 102° (ESE) 11:10:52 145.870
DUCHIFAT 1 28 Apr 11:03:31 11:07:39 61° 73° (ENE) 11:11:51 145.980
TIGRISAT 28 Apr 11:05:17 11:09:50 68° 259° (W) 11:14:31 435.000
POLYITAN 1 28 Apr 11:06:16 11:10:28 68° 74° (ENE) 11:14:44 437.675
COMPASS 1 28 Apr 11:07:31 11:11:21 34° 291° (WNW) 11:15:07 437.405
BRITE-PL 28 Apr 11:08:57 11:12:31 19° 299° (WNW) 11:16:06 437.365/2234.400
UNISAT 6 28 Apr 11:11:03 11:15:35 58° 260° (W) 11:20:14 437.425
BEESAT 3 28 Apr 11:11:23 11:15:28 66° 236° (SW) 11:19:30 437.485
BEESAT 2 28 Apr 11:16:43 11:20:52 70° 234° (SW) 11:24:55 435.950
HUMSAT D 28 Apr 11:20:51 11:24:59 41° 97° (E) 11:29:05 437.325/437.525
UWE-3 28 Apr 11:22:16 11:27:00 81° 285° (WNW) 11:31:41 435.000/436.395/437.385
QB50P1 28 Apr 11:22:59 11:27:12 82° 256° (WSW) 11:31:29 145.935-145.965
FUNcube-1 28 Apr 11:23:39 11:28:18 85° 104° (ESE) 11:32:52 145.935
CINEMA 3 28 Apr 11:23:55 11:28:37 41° 291° (WNW) 11:33:17 145.822/145.860
UKube-1 28 Apr 11:24:10 11:28:23 48° 100° (E) 11:32:35 .
Cosmos 2504 28 Apr 11:33:34 11:35:49 12° 71° (ENE) 11:38:40 435.465 / 435.565
50 SAT 28 Apr 11:35:58 11:39:44 36° 97° (E) 11:43:28 437.505
Cosmos 2491 28 Apr 11:37:08 11:44:55 35° 276° (W) 11:52:32 435.465 / 435.565
ESTCUBE 1 28 Apr 11:37:39 11:41:03 21° 91° (E) 11:44:32 437.505/2401.250
SEEDS 28 Apr 11:38:49 11:41:29 16° 299° (WNW) 11:44:01 437.485
Oscar 11 28 Apr 11:42:57 11:46:58 36° 291° (WNW) 11:50:55 145.826/435.025
AAUSAT CUBESAT 2 28 Apr 11:48:22 11:51:08 17° 298° (WNW) 11:53:48 437.432
ZACube-1 28 Apr 11:50:27 11:54:59 53° 289° (WNW) 11:59:26 437.345
QB50P2 28 Apr 11:50:31 11:54:34 42° 262° (W) 11:58:37 145.880/145.840
HO-68 28 Apr 11:51:23 11:57:28 30° 304° (NW) 12:03:24 435.675
ANTELSAT 28 Apr 11:54:22 11:58:07 24° 268° (W) 12:01:52 437.575/2403.000
CUBEBUG 1 28 Apr 12:01:16 12:05:10 31° 95° (E) 12:09:06 437.445
VELOX 1 28 Apr 12:04:41 12:09:07 65° 102° (ESE) 12:13:33 145.980
NANOSAT C BR1 28 Apr 12:06:51 12:10:35 30° 265° (W) 12:14:20 145.865
PCSat 28 Apr 12:09:51 12:11:33 11° 348° (NNW) 12:13:11 145.827
POPSAT HIP 1 28 Apr 12:11:40 12:15:18 27° 266° (W) 12:18:55 437.405
AIST 1 28 Apr 12:18:12 12:22:23 53° 265° (W) 12:26:32
BUGSAT 1 28 Apr 12:19:41 12:23:14 29° 265° (W) 12:26:47 437.445
DX 1 28 Apr 12:21:39 12:25:48 43° 291° (WNW) 12:29:57 434.975-435.025
AISAT 28 Apr 12:23:49 12:28:19 80° 286° (WNW) 12:32:47 437.250
ISS 28 Apr 12:24:43 12:27:57 65° 152° (SSE) 12:31:12 145.825
TISAT 1 28 Apr 12:28:21 12:30:32 14° 88° (E) 12:32:53 437.305
SO-50 28 Apr 12:29:24 12:34:04 60° 313° (NW) 12:38:55 436.795
AIST 2 28 Apr 12:36:35 12:40:31 36° 241° (WSW) 12:44:21 435.215
DELFI C3 28 Apr 12:39:28 12:41:29 13° 300° (WNW) 12:43:22 145.870
CUBEBUG 2 28 Apr 12:40:30 12:43:27 16° 300° (WNW) 12:46:16 437.445
DUCHIFAT 1 28 Apr 12:41:29 12:43:57 15° 272° (W) 12:46:17 145.980
POLYITAN 1 28 Apr 12:44:44 12:46:56 13° 273° (W) 12:48:59 437.675
YUBILEINY 28 Apr 12:45:51 12:54:00 38° 294° (WNW) 13:02:02 435.215
Gurwin Techsat 1B 28 Apr 12:56:18 12:58:53 14° 55° (NE) 13:01:41 435.225
HUMSAT D 28 Apr 12:57:02 13:00:33 24° 295° (WNW) 13:03:57 437.325/437.525
UWE-3 28 Apr 13:00:43 13:02:50 13° 303° (WNW) 13:04:46 435.000/436.395/437.385
UKube-1 28 Apr 13:00:57 13:04:15 21° 297° (WNW) 13:07:27 .
FUNcube-1 28 Apr 13:01:29 13:04:01 14° 301° (WNW) 13:06:23 145.935
Oscar 19 28 Apr 13:03:03 13:07:55 44° 68° (ENE) 13:12:52 437.125/150
AO-7 28 Apr 13:09:11 13:12:33 13° 34° (NNE) 13:16:14 29.400- 29.500
SPROUT 28 Apr 13:09:30 13:13:41 45° 98° (E) 13:17:52 437.525
50 SAT 28 Apr 13:11:06 13:14:22 23° 295° (WNW) 13:17:34 437.505
ESTCUBE 1 28 Apr 13:13:52 13:18:12 46° 290° (WNW) 13:22:29 437.505/2401.250
Cosmos 2504 28 Apr 13:19:01 13:27:30 54° 91° (E) 13:35:52 435.465 / 435.565
CUBEBUG 1 28 Apr 13:37:39 13:41:31 31° 293° (WNW) 13:45:20 437.445
VELOX 1 28 Apr 13:42:19 13:45:16 17° 299° (WNW) 13:48:05 145.980
ITAMSAT 1 28 Apr 13:45:01 13:49:40 36° 66° (ENE) 13:54:24 435.822/435.867
PCSat 28 Apr 13:55:37 13:57:31 12° 14° (NNE) 13:59:30 145.827
ISS 28 Apr 14:01:15 14:04:25 46° 352° (N) 14:07:36 145.825
ITUPSAT 1 28 Apr 14:02:13 14:05:54 22° 92° (E) 14:09:41 437.325
AISAT 28 Apr 14:02:32 14:04:14 12° 303° (WNW) 14:05:44 437.250
TISAT 1 28 Apr 14:02:35 14:06:50 66° 287° (WNW) 14:11:03 437.305
RS-15 28 Apr 14:04:23 14:14:28 48° 113° (ESE) 14:24:54 29.354- 29.394
SO-50 28 Apr 14:12:17 14:15:38 18° 336° (NNW) 14:18:58 436.795
BEESAT 28 Apr 14:30:28 14:34:58 41° 98° (E) 14:39:28 436.000
Gurwin Techsat 1B 28 Apr 14:32:48 14:38:05 76° 74° (ENE) 14:43:26 435.225
SWISSCUBE 28 Apr 14:33:29 14:38:05 47° 99° (E) 14:42:40 437.505
JAS-2 28 Apr 14:33:44 14:39:39 26° 57° (ENE) 14:45:28 435.910
Oscar 19 28 Apr 14:43:00 14:47:28 28° 267° (W) 14:51:54 437.125/150
SPROUT 28 Apr 14:46:09 14:49:31 22° 296° (WNW) 14:52:48 437.525
AO-7 28 Apr 14:55:45 15:03:17 42° 57° (ENE) 15:10:57 29.400- 29.500
HORYU 2 28 Apr 14:58:00 15:01:51 29° 65° (ENE) 15:05:47 437.375
KKS-1 28 Apr 15:10:48 15:14:12 21° 91° (E) 15:17:41 437.445
Cosmos 2504 28 Apr 15:12:53 15:21:14 42° 292° (WNW) 15:29:17 435.465 / 435.565
GONETS M04 28 Apr 15:14:30 15:20:25 22° 77° (ENE) 15:26:45
ITAMSAT 1 28 Apr 15:24:27 15:29:12 35° 264° (W) 15:33:57 435.822/435.867
ISS 28 Apr 15:37:55 15:41:07 51° 12° (NNE) 15:44:19 145.825
PCSat 28 Apr 15:38:10 15:42:51 29° 39° (NE) 15:47:33 145.827
ITUPSAT 1 28 Apr 15:39:30 15:44:06 49° 290° (WNW) 15:48:40 437.325
SO-50 28 Apr 15:56:27 15:58:07 12° 0° (N) 15:59:47 436.795
STARS 28 Apr 15:56:59 16:01:10 38° 97° (E) 16:05:20 437.465
BEESAT 28 Apr 16:08:37 16:12:40 28° 296° (WNW) 16:16:40 436.000
SWISSCUBE 28 Apr 16:11:50 16:15:43 25° 297° (WNW) 16:19:30 437.505
Gurwin Techsat 1B 28 Apr 16:15:17 16:18:46 17° 273° (W) 16:22:04 435.225
RS-15 28 Apr 16:15:46 16:26:37 64° 319° (NW) 16:37:51 29.354- 29.394
JAS-2 28 Apr 16:16:08 16:24:02 88° 255° (WSW) 16:31:29 435.910
DANDE 28 Apr 16:34:08 16:36:27 15° 80° (E) 16:39:19 436.750
HORYU 2 28 Apr 16:34:17 16:38:26 35° 264° (W) 16:42:35 437.375
KKS-1 28 Apr 16:46:47 16:51:07 47° 290° (WNW) 16:55:25 437.445
AO-7 28 Apr 16:47:50 16:55:58 56° 258° (WSW) 17:04:05 29.400- 29.500
VERMONT LUNAR 28 Apr 16:58:35 17:01:02 19° 168° (SSE) 17:03:31 437.305
CUTE-I 28 Apr 17:00:24 17:03:55 19° 58° (ENE) 17:07:36 437.470
GONETS M04 28 Apr 17:07:22 17:16:09 88° 103° (ESE) 17:25:05
Cubesat XI-IV 28 Apr 17:10:30 17:14:28 22° 60° (ENE) 17:18:34 437.490
CUSAT 1 28 Apr 17:13:08 17:17:07 52° 94° (E) 17:22:32 437.405
ISS 28 Apr 17:14:19 17:17:29 47° 211° (SSW) 17:20:38 145.825
Cosmos 2504 28 Apr 17:15:44 17:17:41 11° 319° (NW) 17:19:06 435.465 / 435.565
PCSat 28 Apr 17:21:19 17:26:43 65° 240° (WSW) 17:32:04 145.827
Cosmos 2499 28 Apr 17:32:11 17:39:12 29° 83° (E) 17:46:14 435.465 / 435.565
STARS 28 Apr 17:33:43 17:37:28 27° 295° (WNW) 17:41:10 437.465
SO-50 28 Apr 17:37:11 17:40:35 18° 24° (NNE) 17:44:03 436.795
MOZHAYETS 4 28 Apr 17:37:26 17:41:55 49° 99° (E) 17:46:21
PHONESAT 2.4 28 Apr 18:00:28 18:03:10 20° 168° (SSE) 18:05:54 2401.200-2431.200
JAS-2 28 Apr 18:04:15 18:10:01 21° 275° (W) 18:15:19 435.910
DANDE 28 Apr 18:15:00 18:18:48 55° 288° (WNW) 18:24:00 436.750
RS-15 28 Apr 18:31:43 18:41:39 35° 350° (N) 18:51:55 29.354- 29.394
VERMONT LUNAR 28 Apr 18:35:13 18:37:54 22° 185° (S) 18:40:34 437.305
CUTE-I 28 Apr 18:38:08 18:43:27 79° 255° (WSW) 18:48:49 437.470
AO-7 28 Apr 18:48:42 18:51:00 11° 281° (WNW) 18:52:36 29.400- 29.500
Cubesat XI-IV 28 Apr 18:48:54 18:54:11 65° 258° (WSW) 18:59:30 437.490
HO-68 28 Apr 18:50:35 18:55:16 20° 49° (NE) 19:00:10 435.675
M-CUBED/EXP-1 PRIME 28 Apr 18:50:38 18:53:08 16° 93° (E) 18:55:38 437.505
CUSAT 1 28 Apr 18:57:00 19:00:33 21° 304° (WNW) 19:04:47 437.405
GONETS M04 28 Apr 19:07:22 19:14:26 25° 303° (WNW) 19:21:18
BRITE-PL 28 Apr 19:08:12 19:10:43 16° 59° (ENE) 19:13:27 437.365/2234.400
PCSat 28 Apr 19:08:29 19:09:14 10° 258° (WSW) 19:09:38 145.827
STRAND 1 28 Apr 19:15:04 19:18:56 22° 91° (E) 19:22:55 437.568
MOZHAYETS 4 28 Apr 19:15:17 19:18:52 22° 297° (WNW) 19:22:20
SO-50 28 Apr 19:17:13 19:22:09 59° 47° (NE) 19:27:03 436.795
Cosmos 2499 28 Apr 19:22:53 19:31:45 75° 282° (WNW) 19:40:15 435.465 / 435.565
CUBESAT XI-V 28 Apr 19:23:25 19:27:56 51° 99° (E) 19:32:26 437.345
AUBIESAT-1 28 Apr 19:28:54 19:32:40 34° 101° (E) 19:36:10 437.475
CANX-2 28 Apr 19:37:44 19:40:22 16° 62° (ENE) 19:43:07 2200.000
PHONESAT 2.4 28 Apr 19:37:53 19:40:49 23° 185° (S) 19:43:44 2401.200-2431.200
CUTE 1.7 + AOD 2 28 Apr 19:46:05 19:48:56 18° 62° (ENE) 19:51:53 437.475
PRISM 28 Apr 20:03:51 20:07:58 76° 103° (ESE) 20:12:03 437.425
VERMONT LUNAR 28 Apr 20:13:13 20:14:40 12° 201° (SSW) 20:16:06 437.305
GOMX 1 28 Apr 20:14:13 20:18:16 42° 69° (ENE) 20:22:36 467.674
CUTE-I 28 Apr 20:22:27 20:24:33 12° 276° (W) 20:26:19 437.470
M-CUBED/EXP-1 PRIME 28 Apr 20:24:20 20:28:29 54° 295° (WNW) 20:32:16 437.505
COMPASS 1 28 Apr 20:26:46 20:30:25 29° 67° (ENE) 20:34:08 437.405
CUBEBUG 2 28 Apr 20:30:06 20:32:29 15° 59° (ENE) 20:35:05 437.445
DOVE 4 28 Apr 20:33:45 20:37:54 45° 69° (ENE) 20:42:20 437.250
HO-68 28 Apr 20:34:48 20:41:57 74° 70° (ENE) 20:49:11 435.675
BRITE-PL 28 Apr 20:44:35 20:48:46 66° 259° (W) 20:53:12 437.365/2234.400
RS-15 28 Apr 20:47:12 20:57:41 41° 23° (NNE) 21:08:42 29.354- 29.394
UWE-3 28 Apr 20:48:13 20:51:07 18° 61° (ENE) 20:54:11 435.000/436.395/437.385
FUNcube-1 28 Apr 20:49:00 20:51:20 15° 59° (ENE) 20:53:51 145.935
CINEMA 3 28 Apr 20:52:18 20:56:25 37° 68° (ENE) 21:00:45 145.822/145.860
STRAND 1 28 Apr 20:53:32 20:58:33 56° 289° (WNW) 21:03:31 437.568
YUBILEINY 28 Apr 20:53:52 21:01:39 35° 64° (ENE) 21:09:31 435.215
Cosmos 2491 28 Apr 20:55:07 20:58:21 13° 71° (ENE) 21:02:11 435.465 / 435.565
SEEDS 28 Apr 20:57:07 21:01:23 70° 74° (ENE) 21:05:40 437.485
SO-50 28 Apr 20:58:21 21:02:24 25° 245° (WSW) 21:06:19 436.795
CUBESAT XI-V 28 Apr 21:01:32 21:05:06 22° 297° (WNW) 21:08:33 437.345
AUBIESAT-1 28 Apr 21:03:51 21:07:22 26° 302° (WNW) 21:10:35 437.475
Oscar 11 28 Apr 21:05:11 21:09:02 32° 67° (ENE) 21:12:57 145.826/435.025
AAUSAT CUBESAT 2 28 Apr 21:05:46 21:09:56 62° 73° (ENE) 21:14:08 437.432
CANX-2 28 Apr 21:11:35 21:15:51 65° 258° (WSW) 21:20:11 2200.000
ZACube-1 28 Apr 21:14:26 21:17:57 24° 64° (ENE) 21:21:38 437.345
PHONESAT 2.4 28 Apr 21:16:33 21:18:21 13° 202° (SSW) 21:20:07 2401.200-2431.200
CUTE 1.7 + AOD 2 28 Apr 21:20:13 21:24:28 58° 259° (W) 21:28:45 437.475
Cosmos 2499 28 Apr 21:20:24 21:26:36 20° 306° (NW) 21:32:18 435.465 / 435.565
VELOX 1 28 Apr 21:32:17 21:34:08 13° 58° (ENE) 21:36:08 145.980
PRISM 28 Apr 21:40:52 21:42:55 13° 301° (WNW) 21:44:49 437.425
